Regional Weather Roundup
Issued by NWS

Home | Current Version | Previous Version | Graphics & Text | Print | Product List | Glossary On
Versions: 1 2 3 4 5 6 7 8 9 10 11 12 13 14 15 16 17 18 19 20 21 22 23 24 25 26 27 28 29 30 31 32 33 34 35 36 37 38 39 40 41 42 43 44 45 46 47 48 49 50
000
ASUS43 KFSD 201510
RWRSD

WEATHER ROUNDUP FOR SOUTH DAKOTA
NATIONAL WEATHER SERVICE SIOUX FALLS SD
900 AM CST MON NOV 20 2017

NOTE: "FAIR" INDICATES FEW OR NO CLOUDS BELOW 12,000 FEET WITH NO
SIGNIFICANT WEATHER AND/OR OBSTRUCTIONS TO VISIBILITY.


SDZ001>005-009-010-012>017-201600-
NORTHWEST AND NORTH CENTRAL SOUTH DAKOTA

CITY           SKY/WX    TMP DP  RH WIND       PRES   REMARKS
BUFFALO          N/A     42  16  34 W18       29.46R
FAITH            N/A     39  20  46 W10       29.53R
MOBRIDGE       CLOUDY    33  26  75 S8        29.47S WCI  26
$$

SDZ012>016-024>037-041>051-057-063-072>074-201600-
SOUTHWEST AND SOUTH CENTRAL SOUTH DAKOTA

CITY           SKY/WX    TMP DP  RH WIND       PRES   REMARKS
RAPID CTY ARPT CLOUDY    37  20  50 CALM      29.57S
PIERRE         CLOUDY    35  22  58 CALM      29.53F
CUSTER         CLOUDY    38   8  29 W9        29.68R
ELLSWORTH AFB  CLOUDY    46  15  28 W10       29.57R
PHILIP         CLOUDY    34  24  67 CALM      29.56F
PINE RIDGE     CLOUDY    39  17  41 VRB3      29.66R
SPEARFISH      FAIR      50   9  18 W12G22    29.59R
WINNER         FAIR      42  20  41 SW12      29.58F
$$

SDZ004>011-016>023-039-040-201600-
NORTHEAST SOUTH DAKOTA

CITY           SKY/WX    TMP DP  RH WIND       PRES   REMARKS
ABERDEEN       MOSUNNY   27  24  89 S8        29.50F WCI  19
WATERTOWN      CLOUDY    28  24  85 S10       29.51F WCI  19
SISSETON         N/A     39  26  59 S6        29.46F
$$

SDZ017-020-022-023-036>040-048>070-201600-
SOUTHEAST SOUTH DAKOTA

CITY           SKY/WX    TMP DP  RH WIND       PRES   REMARKS
SIOUX FALLS    CLOUDY    35  26  69 S5        29.59F
HURON          CLOUDY    28  22  78 CALM      29.56S
CHAMBERLAIN    CLOUDY    33  25  73 W3        29.57F
MITCHELL       CLOUDY    33  24  69 S8        29.58F WCI  26
YANKTON        CLOUDY    40  26  57 SW9       29.61F
$$

ABBREVIATIONS USED IN REMARKS
   TC - TEMPERATURE IN CELSIUS
  WCI - WIND CHILL INDEX
   HX - HEAT INDEX
  VSB - VISIBILITY




USA.gov is the U.S. government's official web portal to all federal, state and local government web resources and services.